Regional Weather Roundup
Issued by NWS

Home | Current Version | Previous Version | Graphics & Text | Print | Product List | Glossary On
Versions: 1 2 3 4 5 6 7 8 9 10 11 12 13 14 15 16 17 18 19 20 21 22 23 24 25 26 27 28 29 30 31 32 33 34 35 36 37 38 39 40 41 42 43 44 45 46 47 48 49 50
000
ASUS45 KCYS 130210
RWRWY

WYOMING REGIONAL WEATHER ROUNDUP
NATIONAL WEATHER SERVICE CHEYENNE WY
700 PM MST FRI FEB 12 2016

NOTE:  "FAIR" INDICATES FEW OR NO CLOUDS BELOW 12,000 FEET
WITH NO SIGNIFICANT WEATHER AND/OR OBSTRUCTIONS TO VISIBILITY.

WYZ001-130300-
YELLOWSTONE NATIONAL PARK

CITY           SKY/WX    TMP DP  RH WIND       PRES   REMARKS
LK YELLOWSTONE   N/A     30  19  63 CALM      30.28F
W YELLOWSTONE  NOT AVBL

$$
WYZ002>013-054>058-071-098>099-130300-
NORTHERN WYOMING

CITY           SKY/WX    TMP DP  RH WIND       PRES   REMARKS
JACKSON        CLEAR     43  16  33 CALM      30.24F
CODY           FAIR      45  25  45 S5        30.11F
GREYBULL       FAIR      45  26  47 SE3       30.11R
WORLAND        FAIR      40  29  64 NE3       30.11S
SHERIDAN       FAIR      35  29  78 NW5       30.12R WCI  31
BUFFALO          N/A    N/A N/A N/A MISG      30.14F
GILLETTE       FAIR      35  29  78 S21       30.14F WCI  24
HULETT         CLOUDY    30  28  93 CALM      30.19F
NEWCASTLE      CLOUDY    30  28  93 SE6       30.26F WCI  24

$$
WYZ014>020-022>026-101>103-130300-
CENTRAL WYOMING

CITY           SKY/WX    TMP DP  RH WIND       PRES   REMARKS
BIG PINEY      FAIR      31  24  75 N8        30.28F WCI  23
PINEDALE         N/A     32  27  80 W3        30.30R
DUBOIS         FAIR      41  12  30 NW12      30.20S
LANDER         FAIR      38  28  67 CALM      30.14R
RIVERTON       FAIR      39  28  64 N5        30.15S
CASPER         FAIR      39  25  57 CALM      30.17S
DOUGLAS        FAIR      36  30  79 SE12      30.20F WCI  28

$$
WYZ021-027>030-104>119-130300-
SOUTHERN WYOMING

CITY           SKY/WX    TMP DP  RH WIND       PRES   REMARKS
EVANSTON       FAIR      42  16  34 W5        30.30S
KEMMERER       FAIR      36  14  41 CALM      30.30S
FORT BRIDGER   CLEAR     41  19  42 W12       30.32F
ROCK SPRINGS   FAIR      37  20  50 SW12      30.28S WCI  29
DIXON          FAIR      27  20  76 E5        30.34S WCI  21
RAWLINS        FAIR      40  22  48 SW16      30.25S WCI  31
SARATOGA       FAIR      41  27  56 S17       30.29S
LARAMIE        FAIR      43  19  38 SW16      30.23F
CHEYENNE       FAIR      37  27  67 SW12      30.24S WCI  29
TORRINGTON     CLOUDY    33  29  85 E18G25    30.25S WCI  22
PINE BLUFFS    FAIR      30  30 100 SE3       30.26S

$$



USA.gov is the U.S. government's official web portal to all federal, state and local government web resources and services.